| time (UTC) | temp F | wind direction | speed MPH | gust MPH | rain 1hr in | rain 24hr in | rain mn in | humidity % | barometer mb |
| 20260510201022 | 90 | 226 | 5.0 | 10.0 | 0.00 | 0.03 | 0.00 | 56 | 1014.1 |
| 20260510200524 | 90 | 232 | 5.0 | 10.0 | 0.00 | 0.03 | 0.00 | 59 | 1014.0 |
| 20260510200107 | 90 | 238 | 3.0 | 10.0 | 0.00 | 0.03 | 0.00 | 58 | 1014.0 |
| 20260510195519 | 90 | 236 | 3.0 | 10.0 | 0.00 | 0.03 | 0.00 | 57 | 1014.1 |
| 20260510195022 | 90 | 229 | 4.0 | 10.0 | 0.00 | 0.03 | 0.00 | 58 | 1014.1 |
| 20260510194550 | 90 | 196 | 3.0 | 8.0 | 0.00 | 0.03 | 0.00 | 59 | 1014.0 |
| 20260510194025 | 90 | 250 | 2.0 | 11.0 | 0.00 | 0.03 | 0.00 | 56 | 1014.0 |
| 20260510193523 | 90 | 257 | 5.0 | 11.0 | 0.00 | 0.03 | 0.00 | 59 | 1014.1 |
| 20260510193043 | 90 | 259 | 3.0 | 11.0 | 0.00 | 0.03 | 0.00 | 57 | 1014.2 |
| 20260510192520 | 90 | 272 | 8.0 | 11.0 | 0.00 | 0.03 | 0.00 | 57 | 1014.2 |
| 20260510192022 | 90 | 222 | 6.0 | 11.0 | 0.00 | 0.03 | 0.00 | 58 | 1014.3 |
| 20260510191552 | 90 | 225 | 7.0 | 11.0 | 0.00 | 0.03 | 0.00 | 56 | 1014.3 |
| 20260510191021 | 90 | 224 | 3.0 | 7.0 | 0.00 | 0.03 | 0.00 | 58 | 1014.4 |
| 20260510190521 | 90 | 218 | 3.0 | 8.0 | 0.00 | 0.03 | 0.00 | 59 | 1014.4 |
| 20260510190043 | 90 | 255 | 4.0 | 8.0 | 0.00 | 0.03 | 0.00 | 57 | 1014.4 |
| 20260510185521 | 90 | 227 | 6.0 | 8.0 | 0.00 | 0.03 | 0.00 | 59 | 1014.6 |
| 20260510185023 | 90 | 234 | 2.0 | 12.0 | 0.00 | 0.03 | 0.00 | 58 | 1014.7 |
| 20260510184540 | 89 | 236 | 1.0 | 12.0 | 0.00 | 0.03 | 0.00 | 57 | 1014.7 |
| 20260510184021 | 89 | 227 | 8.0 | 15.0 | 0.00 | 0.03 | 0.00 | 57 | 1014.7 |
| 20260510183522 | 89 | 255 | 6.0 | 15.0 | 0.00 | 0.03 | 0.00 | 59 | 1014.8 |
| 20260510183047 | 89 | 220 | 6.0 | 13.0 | 0.00 | 0.03 | 0.00 | 61 | 1014.9 |
| 20260510182521 | 89 | 230 | 7.0 | 12.0 | 0.00 | 0.03 | 0.00 | 60 | 1015.0 |
| 20260510182022 | 89 | 173 | 3.0 | 19.0 | 0.00 | 0.03 | 0.00 | 60 | 1014.9 |
| 20260510181539 | 88 | 200 | 4.0 | 19.0 | 0.00 | 0.03 | 0.00 | 62 | 1014.9 |
| 20260510181025 | 88 | 206 | 9.0 | 18.0 | 0.00 | 0.03 | 0.00 | 62 | 1015.0 |
| 20260510180522 | 88 | 200 | 4.0 | 11.0 | 0.00 | 0.03 | 0.00 | 61 | 1015.2 |
| 20260510180035 | 88 | 227 | 6.0 | 14.0 | 0.00 | 0.03 | 0.00 | 61 | 1015.4 |
| 20260510175522 | 88 | 229 | 7.0 | 14.0 | 0.00 | 0.03 | 0.00 | 62 | 1015.4 |
| 20260510175022 | 88 | 223 | 3.0 | 11.0 | 0.00 | 0.03 | 0.00 | 61 | 1015.4 |
| 20260510174544 | 87 | 200 | 4.0 | 12.0 | 0.00 | 0.03 | 0.00 | 61 | 1015.6 |
| 20260510174022 | 87 | 227 | 7.0 | 12.0 | 0.00 | 0.03 | 0.00 | 61 | 1015.6 |
| 20260510173524 | 87 | 246 | 8.0 | 11.0 | 0.00 | 0.03 | 0.00 | 63 | 1015.7 |
| 20260510173048 | 87 | 215 | 6.0 | 14.0 | 0.00 | 0.03 | 0.00 | 62 | 1015.7 |
| 20260510172521 | 87 | 248 | 8.0 | 14.0 | 0.00 | 0.03 | 0.00 | 63 | 1015.7 |
| 20260510172023 | 87 | 197 | 7.0 | 14.0 | 0.00 | 0.03 | 0.00 | 61 | 1015.7 |
| 20260510171548 | 86 | 247 | 9.0 | 12.0 | 0.00 | 0.03 | 0.00 | 63 | 1015.8 |
| 20260510171022 | 86 | 221 | 8.0 | 13.0 | 0.00 | 0.03 | 0.00 | 63 | 1015.9 |
| 20260510170522 | 86 | 230 | 9.0 | 14.0 | 0.00 | 0.03 | 0.00 | 63 | 1016.0 |
| 20260510170039 | 86 | 249 | 5.0 | 14.0 | 0.00 | 0.03 | 0.00 | 65 | 1016.0 |
| 20260510165522 | 86 | 236 | 9.0 | 14.0 | 0.00 | 0.03 | 0.00 | 65 | 1016.2 |
| 20260510165022 | 86 | 283 | 7.0 | 13.0 | 0.00 | 0.03 | 0.00 | 66 | 1016.2 |
| 20260510164546 | 86 | 281 | 8.0 | 13.0 | 0.00 | 0.03 | 0.00 | 68 | 1016.3 |
| 20260510164021 | 86 | 254 | 8.0 | 13.0 | 0.00 | 0.03 | 0.00 | 67 | 1016.3 |
| 20260510163522 | 86 | 257 | 8.0 | 13.0 | 0.00 | 0.03 | 0.00 | 68 | 1016.1 |
| 20260510163041 | 86 | 266 | 7.0 | 12.0 | 0.00 | 0.03 | 0.00 | 68 | 1016.2 |
| 20260510162523 | 86 | 277 | 6.0 | 12.0 | 0.00 | 0.03 | 0.00 | 69 | 1016.3 |
| 20260510162022 | 85 | 259 | 8.0 | 11.0 | 0.00 | 0.03 | 0.00 | 69 | 1016.2 |
| 20260510161540 | 85 | 232 | 5.0 | 10.0 | 0.00 | 0.03 | 0.00 | 68 | 1016.2 |
| 20260510161023 | 85 | 240 | 4.0 | 10.0 | 0.00 | 0.03 | 0.00 | 69 | 1016.3 |
| 20260510160520 | 85 | 259 | 7.0 | 10.0 | 0.00 | 0.03 | 0.00 | 70 | 1016.3 |
| 20260510160041 | 85 | 184 | 3.0 | 9.0 | 0.00 | 0.03 | 0.00 | 72 | 1016.4 |
| 20260510155522 | 84 | 257 | 5.0 | 9.0 | 0.00 | 0.03 | 0.00 | 75 | 1016.3 |
| 20260510155020 | 84 | 221 | 4.0 | 12.0 | 0.00 | 0.03 | 0.00 | 74 | 1016.5 |
| 20260510154543 | 84 | 223 | 8.0 | 12.0 | 0.00 | 0.03 | 0.00 | 73 | 1016.4 |
| 20260510154020 | 84 | 205 | 5.0 | 11.0 | 0.00 | 0.03 | 0.00 | 73 | 1016.5 |
| 20260510153521 | 84 | 202 | 6.0 | 11.0 | 0.00 | 0.03 | 0.00 | 73 | 1016.5 |
| 20260510153040 | 83 | 211 | 7.0 | 10.0 | 0.00 | 0.03 | 0.00 | 73 | 1016.5 |
| 20260510152520 | 83 | 207 | 5.0 | 9.0 | 0.00 | 0.03 | 0.00 | 76 | 1016.5 |
| 20260510152021 | 83 | 199 | 6.0 | 9.0 | 0.00 | 0.03 | 0.00 | 75 | 1016.4 |
| 20260510151545 | 83 | 190 | 6.0 | 11.0 | 0.00 | 0.03 | 0.00 | 76 | 1016.4 |
| 20260510151020 | 83 | 207 | 7.0 | 12.0 | 0.00 | 0.03 | 0.00 | 75 | 1016.3 |
| 20260510150523 | 82 | 211 | 9.0 | 12.0 | 0.00 | 0.03 | 0.00 | 75 | 1016.4 |
| 20260510150042 | 82 | 211 | 4.0 | 8.0 | 0.00 | 0.03 | 0.00 | 78 | 1016.4 |
| 20260510145522 | 82 | 212 | 3.0 | 9.0 | 0.00 | 0.03 | 0.00 | 78 | 1016.3 |
| 20260510145024 | 82 | 0 | 0.0 | 9.0 | 0.00 | 0.03 | 0.00 | 80 | 1016.2 |
| 20260510144543 | 81 | 228 | 7.0 | 9.0 | 0.00 | 0.03 | 0.00 | 80 | 1016.2 |
| 20260510144023 | 81 | 209 | 5.0 | 9.0 | 0.00 | 0.03 | 0.00 | 80 | 1016.1 |
| 20260510143524 | 81 | 209 | 5.0 | 9.0 | 0.00 | 0.03 | 0.00 | 81 | 1016.1 |
| 20260510143042 | 80 | 210 | 6.0 | 9.0 | 0.00 | 0.03 | 0.00 | 82 | 1016.2 |
| 20260510142522 | 80 | 194 | 4.0 | 8.0 | 0.00 | 0.03 | 0.00 | 84 | 1016.2 |
| 20260510142020 | 80 | 201 | 5.0 | 8.0 | 0.00 | 0.03 | 0.00 | 84 | 1016.2 |
| 20260510141540 | 80 | 219 | 5.0 | 8.0 | 0.00 | 0.03 | 0.00 | 86 | 1016.2 |
| 20260510141022 | 79 | 214 | 5.0 | 7.0 | 0.00 | 0.03 | 0.00 | 87 | 1016.1 |
| 20260510140520 | 79 | 202 | 5.0 | 8.0 | 0.00 | 0.03 | 0.00 | 88 | 1016.1 |
| 20260510140036 | 78 | 194 | 5.0 | 8.0 | 0.00 | 0.03 | 0.00 | 89 | 1016.1 |
| 20260510135520 | 78 | 198 | 5.0 | 9.0 | 0.00 | 0.03 | 0.00 | 89 | 1016.1 |
| 20260510135020 | 78 | 190 | 6.0 | 9.0 | 0.00 | 0.03 | 0.00 | 90 | 1016.0 |
| 20260510134542 | 78 | 200 | 6.0 | 9.0 | 0.00 | 0.03 | 0.00 | 92 | 1015.9 |
| 20260510134019 | 77 | 198 | 5.0 | 7.0 | 0.00 | 0.03 | 0.00 | 93 | 1015.9 |
| 20260510133521 | 77 | 180 | 1.0 | 8.0 | 0.00 | 0.03 | 0.00 | 93 | 1015.8 |
| 20260510133054 | 77 | 0 | 0.0 | 8.0 | 0.00 | 0.03 | 0.00 | 94 | 1015.8 |
| 20260510132521 | 77 | 181 | 5.0 | 9.0 | 0.00 | 0.03 | 0.00 | 94 | 1015.7 |
| 20260510132022 | 76 | 188 | 7.0 | 9.0 | 0.00 | 0.03 | 0.00 | 95 | 1015.8 |
| 20260510131540 | 76 | 194 | 6.0 | 10.0 | 0.00 | 0.03 | 0.00 | 95 | 1015.7 |
| 20260510131024 | 76 | 184 | 7.0 | 10.0 | 0.00 | 0.03 | 0.00 | 95 | 1015.8 |
| 20260510130522 | 76 | 203 | 8.0 | 10.0 | 0.00 | 0.03 | 0.00 | 96 | 1015.7 |
| 20260510130041 | 76 | 195 | 7.0 | 10.0 | 0.00 | 0.03 | 0.00 | 96 | 1015.7 |
| 20260510125526 | 76 | 186 | 8.0 | 10.0 | 0.00 | 0.03 | 0.00 | 96 | 1015.7 |
| 20260510125023 | 76 | 185 | 8.0 | 10.0 | 0.00 | 0.03 | 0.00 | 96 | 1015.7 |
| 20260510124535 | 76 | 188 | 7.0 | 10.0 | 0.00 | 0.03 | 0.00 | 96 | 1015.7 |
| 20260510124020 | 76 | 194 | 6.0 | 8.0 | 0.00 | 0.03 | 0.00 | 97 | 1015.7 |
| 20260510123521 | 75 | 202 | 5.0 | 6.0 | 0.00 | 0.03 | 0.00 | 97 | 1015.6 |
| 20260510123056 | 75 | 212 | 4.0 | 6.0 | 0.00 | 0.03 | 0.00 | 97 | 1015.7 |
| 20260510122524 | 75 | 202 | 4.0 | 6.0 | 0.00 | 0.03 | 0.00 | 97 | 1015.5 |
| 20260510122019 | 75 | 209 | 4.0 | 6.0 | 0.00 | 0.03 | 0.00 | 97 | 1015.5 |
| 20260510121541 | 75 | 203 | 4.0 | 6.0 | 0.00 | 0.03 | 0.00 | 97 | 1015.4 |
| 20260510121020 | 75 | 201 | 4.0 | 6.0 | 0.00 | 0.03 | 0.00 | 97 | 1015.3 |
| 20260510120522 | 75 | 211 | 3.0 | 5.0 | 0.00 | 0.03 | 0.00 | 97 | 1015.4 |
| 20260510120042 | 75 | 229 | 3.0 | 5.0 | 0.00 | 0.03 | 0.00 | 97 | 1015.5 |
| 20260510115522 | 74 | 219 | 2.0 | 4.0 | 0.00 | 0.03 | 0.00 | 97 | 1015.4 |
| 20260510115022 | 74 | 134 | 0.0 | 2.0 | 0.00 | 0.03 | 0.00 | 97 | 1015.3 |
| 20260510114541 | 74 | 0 | 0.0 | 2.0 | 0.00 | 0.03 | 0.00 | 97 | 1015.2 |
| 20260510114023 | 73 | 0 | 0.0 | 1.0 | 0.00 | 0.03 | 0.00 | 97 | 1015.2 |
| 20260510113520 | 73 | 0 | 0.0 | 0.0 | 0.00 | 0.03 | 0.00 | 97 | 1015.1 |
| 20260510113042 | 73 | 0 | 0.0 | 2.0 | 0.00 | 0.03 | 0.00 | 97 | 1014.9 |
| 20260510112520 | 73 | 0 | 0.0 | 2.0 | 0.00 | 0.03 | 0.00 | 97 | 1014.8 |
| 20260510112022 | 73 | 119 | 0.0 | 2.0 | 0.00 | 0.03 | 0.00 | 97 | 1014.7 |
| 20260510111541 | 73 | 119 | 0.0 | 3.0 | 0.00 | 0.03 | 0.00 | 97 | 1014.6 |
| 20260510111021 | 73 | 0 | 1.0 | 3.0 | 0.00 | 0.03 | 0.00 | 96 | 1014.7 |
| 20260510110519 | 73 | 304 | 1.0 | 3.0 | 0.00 | 0.03 | 0.00 | 96 | 1014.6 |
| 20260510110042 | 73 | 303 | 1.0 | 3.0 | 0.00 | 0.03 | 0.00 | 96 | 1014.5 |
| 20260510105519 | 73 | 302 | 2.0 | 3.0 | 0.00 | 0.03 | 0.00 | 96 | 1014.4 |
| 20260510105020 | 73 | 0 | 0.0 | 0.0 | 0.00 | 0.03 | 0.00 | 96 | 1014.1 |
| 20260510104541 | 73 | 0 | 0.0 | 0.0 | 0.00 | 0.03 | 0.00 | 96 | 1014.0 |
| 20260510104022 | 72 | 0 | 0.0 | 0.0 | 0.00 | 0.03 | 0.00 | 96 | 1014.0 |
| 20260510103522 | 72 | 0 | 0.0 | 0.0 | 0.00 | 0.03 | 0.00 | 96 | 1013.9 |
| 20260510103042 | 73 | 0 | 0.0 | 0.0 | 0.00 | 0.03 | 0.00 | 96 | 1013.7 |
| 20260510102519 | 73 | 0 | 0.0 | 0.0 | 0.00 | 0.03 | 0.00 | 96 | 1013.7 |
| 20260510102020 | 73 | 0 | 0.0 | 0.0 | 0.00 | 0.03 | 0.00 | 96 | 1013.6 |
| 20260510101536 | 73 | 0 | 0.0 | 0.0 | 0.00 | 0.03 | 0.00 | 96 | 1013.5 |
| 20260510101020 | 73 | 0 | 0.0 | 0.0 | 0.00 | 0.03 | 0.00 | 95 | 1013.5 |
| 20260510100521 | 73 | 0 | 0.0 | 0.0 | 0.00 | 0.03 | 0.00 | 95 | 1013.6 |
| 20260510100042 | 73 | 0 | 0.0 | 0.0 | 0.00 | 0.03 | 0.00 | 95 | 1013.6 |
| 20260510095522 | 73 | 0 | 0.0 | 2.0 | 0.00 | 0.03 | 0.00 | 95 | 1013.4 |
| 20260510095021 | 74 | 0 | 0.0 | 3.0 | 0.00 | 0.03 | 0.00 | 96 | 1013.4 |
| 20260510094543 | 74 | 182 | 1.0 | 4.0 | 0.00 | 0.03 | 0.00 | 96 | 1013.5 |
| 20260510094021 | 74 | 181 | 1.0 | 4.0 | 0.00 | 0.03 | 0.00 | 96 | 1013.5 |
| 20260510093521 | 74 | 181 | 2.0 | 4.0 | 0.00 | 0.03 | 0.00 | 96 | 1013.4 |
| 20260510093041 | 73 | 0 | 0.0 | 0.0 | 0.00 | 0.03 | 0.00 | 96 | 1013.4 |
| 20260510092520 | 73 | 0 | 0.0 | 0.0 | 0.00 | 0.03 | 0.00 | 96 | 1013.3 |
| 20260510092022 | 73 | 0 | 0.0 | 0.0 | 0.00 | 0.03 | 0.00 | 96 | 1013.3 |
| 20260510091540 | 74 | 0 | 0.0 | 0.0 | 0.00 | 0.03 | 0.00 | 96 | 1013.2 |
| 20260510091025 | 74 | 0 | 0.0 | 2.0 | 0.00 | 0.03 | 0.00 | 96 | 1013.3 |
| 20260510090522 | 74 | 0 | 0.0 | 4.0 | 0.00 | 0.03 | 0.00 | 96 | 1013.2 |
| 20260510090039 | 74 | 162 | 1.0 | 4.0 | 0.00 | 0.03 | 0.00 | 96 | 1013.3 |
| 20260510085523 | 74 | 157 | 1.0 | 5.0 | 0.00 | 0.03 | 0.00 | 96 | 1013.3 |
| 20260510085022 | 74 | 157 | 1.0 | 5.0 | 0.00 | 0.03 | 0.00 | 96 | 1013.3 |
| 20260510084535 | 74 | 157 | 2.0 | 5.0 | 0.00 | 0.03 | 0.00 | 96 | 1013.0 |
| 20260510084022 | 74 | 159 | 3.0 | 5.0 | 0.00 | 0.03 | 0.00 | 96 | 1013.0 |
| 20260510083525 | 74 | 150 | 2.0 | 5.0 | 0.00 | 0.03 | 0.00 | 96 | 1013.1 |
| 20260510083041 | 74 | 149 | 2.0 | 3.0 | 0.00 | 0.03 | 0.00 | 96 | 1013.1 |
| 20260510082521 | 74 | 144 | 1.0 | 2.0 | 0.00 | 0.03 | 0.00 | 96 | 1013.1 |
| 20260510082020 | 73 | 0 | 0.0 | 0.0 | 0.00 | 0.03 | 0.00 | 96 | 1013.0 |
| 20260510081548 | 73 | 0 | 0.0 | 1.0 | 0.00 | 0.03 | 0.00 | 96 | 1013.1 |
| 20260510081021 | 73 | 0 | 0.0 | 1.0 | 0.00 | 0.03 | 0.00 | 96 | 1013.1 |
| 20260510080523 | 73 | 0 | 0.0 | 0.0 | 0.00 | 0.03 | 0.00 | 95 | 1013.0 |
| 20260510080040 | 73 | 0 | 0.0 | 0.0 | 0.00 | 0.03 | 0.00 | 95 | 1013.1 |
| 20260510075521 | 73 | 0 | 0.0 | 0.0 | 0.00 | 0.03 | 0.00 | 95 | 1013.2 |
| 20260510075022 | 73 | 0 | 0.0 | 0.0 | 0.00 | 0.03 | 0.00 | 95 | 1013.2 |
| 20260510074539 | 73 | 0 | 0.0 | 0.0 | 0.00 | 0.03 | 0.00 | 95 | 1013.2 |
| 20260510074021 | 73 | 0 | 0.0 | 0.0 | 0.00 | 0.03 | 0.00 | 95 | 1013.2 |
| 20260510073521 | 73 | 0 | 0.0 | 0.0 | 0.00 | 0.03 | 0.00 | 95 | 1013.2 |
| 20260510073042 | 73 | 0 | 0.0 | 0.0 | 0.00 | 0.03 | 0.00 | 95 | 1013.3 |
| 20260510072522 | 73 | 0 | 0.0 | 0.0 | 0.00 | 0.03 | 0.00 | 95 | 1013.2 |
| 20260510072022 | 74 | 0 | 0.0 | 0.0 | 0.00 | 0.03 | 0.00 | 95 | 1013.2 |
| 20260510071534 | 74 | 0 | 0.0 | 3.0 | 0.00 | 0.03 | 0.00 | 95 | 1013.3 |
| 20260510071021 | 74 | 0 | 0.0 | 3.0 | 0.00 | 0.03 | 0.00 | 96 | 1013.4 |
| 20260510070521 | 74 | 142 | 0.0 | 4.0 | 0.00 | 0.03 | 0.00 | 96 | 1013.2 |
| 20260510070044 | 74 | 0 | 1.0 | 4.0 | 0.00 | 0.03 | 0.00 | 96 | 1013.3 |
| 20260510065523 | 74 | 142 | 2.0 | 4.0 | 0.00 | 0.03 | 0.00 | 96 | 1013.3 |
| 20260510065022 | 74 | 135 | 1.0 | 3.0 | 0.00 | 0.03 | 0.00 | 96 | 1013.5 |
| 20260510064549 | 74 | 90 | 1.0 | 3.0 | 0.00 | 0.03 | 0.00 | 96 | 1013.5 |
| 20260510064019 | 74 | 0 | 1.0 | 3.0 | 0.00 | 0.03 | 0.00 | 95 | 1013.6 |
| 20260510063521 | 73 | 86 | 0.0 | 2.0 | 0.00 | 0.03 | 0.00 | 95 | 1013.4 |
| 20260510063045 | 73 | 86 | 0.0 | 1.0 | 0.00 | 0.03 | 0.00 | 95 | 1013.6 |
| 20260510062520 | 73 | 0 | 0.0 | 0.0 | 0.00 | 0.03 | 0.00 | 95 | 1013.4 |
| 20260510062021 | 73 | 0 | 0.0 | 0.0 | 0.00 | 0.03 | 0.00 | 95 | 1013.5 |
| 20260510061535 | 73 | 0 | 0.0 | 0.0 | 0.00 | 0.03 | 0.00 | 95 | 1013.6 |
| 20260510061024 | 73 | 0 | 0.0 | 0.0 | 0.00 | 0.03 | 0.00 | 95 | 1013.6 |
| 20260510060520 | 73 | 0 | 0.0 | 0.0 | 0.00 | 0.03 | 0.00 | 95 | 1013.6 |
| 20260510060502 | 73 | 0 | 0.0 | 0.0 | 0.00 | 0.03 | 0.00 | 95 | 1013.6 |
| 20260510055522 | 73 | 0 | 0.0 | 0.0 | 0.00 | 0.03 | 0.00 | 95 | 1013.7 |
| 20260510055019 | 73 | 0 | 0.0 | 0.0 | 0.00 | 0.03 | 0.00 | 95 | 1013.8 |
| 20260510054542 | 73 | 0 | 0.0 | 0.0 | 0.00 | 0.03 | 0.00 | 94 | 1013.8 |
| 20260510054021 | 73 | 0 | 0.0 | 0.0 | 0.00 | 0.03 | 0.00 | 94 | 1013.8 |
| 20260510053522 | 73 | 0 | 0.0 | 0.0 | 0.00 | 0.03 | 0.00 | 94 | 1013.9 |
| 20260510053041 | 73 | 0 | 0.0 | 0.0 | 0.00 | 0.03 | 0.00 | 94 | 1014.1 |
| 20260510052522 | 73 | 0 | 0.0 | 0.0 | 0.00 | 0.03 | 0.00 | 94 | 1014.2 |
| 20260510052021 | 73 | 0 | 0.0 | 0.0 | 0.00 | 0.03 | 0.00 | 94 | 1014.3 |
| 20260510051544 | 73 | 0 | 0.0 | 0.0 | 0.00 | 0.03 | 0.00 | 94 | 1014.3 |
| 20260510051022 | 73 | 0 | 0.0 | 0.0 | 0.00 | 0.03 | 0.00 | 94 | 1014.4 |
| 20260510050523 | 73 | 0 | 0.0 | 0.0 | 0.00 | 0.03 | 0.00 | 94 | 1014.5 |
| 20260510050043 | 73 | 0 | 0.0 | 0.0 | 0.00 | 0.03 | 0.00 | 94 | 1014.5 |
| 20260510045521 | 73 | 0 | 0.0 | 0.0 | 0.00 | 0.03 | 0.00 | 94 | 1014.5 |
| 20260510045022 | 73 | 0 | 0.0 | 0.0 | 0.00 | 0.03 | 0.00 | 94 | 1014.6 |
| 20260510044545 | 74 | 0 | 0.0 | 0.0 | 0.00 | 0.03 | 0.00 | 94 | 1014.6 |
| 20260510044025 | 74 | 0 | 0.0 | 1.0 | 0.00 | 0.03 | 0.00 | 94 | 1014.6 |
| 20260510043522 | 74 | 0 | 0.0 | 3.0 | 0.00 | 0.03 | 0.00 | 94 | 1014.6 |
| 20260510043048 | 74 | 0 | 0.0 | 7.0 | 0.00 | 0.03 | 0.00 | 94 | 1014.5 |
| 20260510042521 | 74 | 86 | 2.0 | 7.0 | 0.00 | 0.03 | 0.00 | 94 | 1014.5 |
| 20260510042024 | 74 | 96 | 4.0 | 7.0 | 0.00 | 0.03 | 0.00 | 94 | 1014.5 |
| 20260510041543 | 74 | 89 | 3.0 | 7.0 | 0.00 | 0.03 | 0.00 | 94 | 1014.4 |
| 20260510041025 | 74 | 93 | 3.0 | 5.0 | 0.00 | 0.03 | 0.00 | 93 | 1014.3 |
| 20260510040522 | 74 | 0 | 0.0 | 2.0 | 0.00 | 0.03 | 0.00 | 93 | 1014.4 |
| 20260510040049 | 74 | 0 | 0.0 | 2.0 | 0.00 | 0.03 | 0.00 | 93 | 1014.5 |
| 20260510035523 | 74 | 0 | 1.0 | 4.0 | 0.00 | 0.03 | 0.03 | 93 | 1014.5 |
| 20260510035021 | 74 | 0 | 0.0 | 4.0 | 0.00 | 0.03 | 0.03 | 93 | 1014.5 |
| 20260510034542 | 74 | 69 | 0.0 | 4.0 | 0.00 | 0.03 | 0.03 | 93 | 1014.4 |
| 20260510034022 | 74 | 0 | 0.0 | 0.0 | 0.00 | 0.03 | 0.03 | 92 | 1014.6 |
| 20260510033522 | 74 | 0 | 0.0 | 0.0 | 0.00 | 0.03 | 0.03 | 92 | 1014.5 |
| 20260510033043 | 75 | 0 | 0.0 | 0.0 | 0.00 | 0.03 | 0.03 | 92 | 1014.4 |
| 20260510032525 | 75 | 0 | 0.0 | 2.0 | 0.00 | 0.03 | 0.03 | 92 | 1014.5 |
| 20260510032021 | 75 | 0 | 0.0 | 5.0 | 0.00 | 0.03 | 0.03 | 92 | 1014.3 |
| 20260510031541 | 75 | 0 | 1.0 | 7.0 | 0.00 | 0.03 | 0.03 | 92 | 1014.3 |
| 20260510031021 | 75 | 84 | 4.0 | 7.0 | 0.00 | 0.03 | 0.03 | 93 | 1014.3 |
| 20260510030521 | 75 | 105 | 1.0 | 5.0 | 0.00 | 0.03 | 0.03 | 92 | 1014.3 |
| 20260510030040 | 75 | 0 | 0.0 | 1.0 | 0.00 | 0.03 | 0.03 | 92 | 1014.5 |
| 20260510025522 | 75 | 0 | 0.0 | 1.0 | 0.00 | 0.03 | 0.03 | 91 | 1014.5 |
| 20260510025022 | 75 | 0 | 0.0 | 1.0 | 0.00 | 0.03 | 0.03 | 92 | 1014.5 |
| 20260510024545 | 75 | 0 | 0.0 | 2.0 | 0.00 | 0.03 | 0.03 | 92 | 1014.4 |
| 20260510024021 | 75 | 0 | 0.0 | 3.0 | 0.00 | 0.03 | 0.03 | 91 | 1014.4 |
| 20260510023521 | 75 | 0 | 0.0 | 3.0 | 0.00 | 0.03 | 0.03 | 91 | 1014.3 |
| 20260510023039 | 75 | 0 | 1.0 | 4.0 | 0.00 | 0.03 | 0.03 | 91 | 1014.3 |
| 20260510022521 | 75 | 292 | 2.0 | 4.0 | 0.00 | 0.03 | 0.03 | 91 | 1014.3 |
| 20260510022022 | 75 | 292 | 2.0 | 6.0 | 0.00 | 0.03 | 0.03 | 91 | 1014.3 |
| 20260510021540 | 75 | 275 | 3.0 | 6.0 | 0.00 | 0.03 | 0.03 | 91 | 1014.3 |
| 20260510021023 | 75 | 288 | 2.0 | 4.0 | 0.00 | 0.03 | 0.03 | 91 | 1014.3 |
| 20260510020521 | 75 | 296 | 1.0 | 4.0 | 0.00 | 0.03 | 0.03 | 91 | 1014.4 |
| 20260510020042 | 75 | 304 | 1.0 | 5.0 | 0.00 | 0.03 | 0.03 | 91 | 1014.4 |
| 20260510015522 | 75 | 302 | 2.0 | 8.0 | 0.00 | 0.03 | 0.03 | 91 | 1014.1 |
| 20260510015026 | 75 | 0 | 2.0 | 11.0 | 0.00 | 0.03 | 0.03 | 91 | 1014.3 |
| 20260510014542 | 75 | 77 | 4.0 | 11.0 | 0.00 | 0.03 | 0.03 | 91 | 1014.2 |
| 20260510014025 | 75 | 58 | 4.0 | 9.0 | 0.00 | 0.03 | 0.03 | 90 | 1014.1 |
| 20260510013523 | 76 | 77 | 4.0 | 7.0 | 0.00 | 0.03 | 0.03 | 90 | 1014.1 |
| 20260510013041 | 76 | 38 | 0.0 | 6.0 | 0.00 | 0.03 | 0.03 | 90 | 1014.2 |
| 20260510012521 | 76 | 0 | 1.0 | 5.0 | 0.00 | 0.03 | 0.03 | 90 | 1014.1 |
| 20260510012021 | 76 | 82 | 1.0 | 5.0 | 0.00 | 0.03 | 0.03 | 89 | 1014.0 |
| 20260510011540 | 76 | 61 | 1.0 | 4.0 | 0.00 | 0.03 | 0.03 | 89 | 1013.8 |
| 20260510011022 | 76 | 76 | 1.0 | 4.0 | 0.00 | 0.03 | 0.03 | 89 | 1013.6 |
| 20260510010523 | 76 | 76 | 2.0 | 4.0 | 0.00 | 0.03 | 0.03 | 89 | 1013.6 |
| 20260510010040 | 76 | 73 | 2.0 | 4.0 | 0.00 | 0.03 | 0.03 | 88 | 1013.5 |
| 20260510005521 | 76 | 0 | 0.0 | 4.0 | 0.00 | 0.03 | 0.03 | 88 | 1013.6 |
| 20260510005021 | 76 | 304 | 1.0 | 4.0 | 0.00 | 0.03 | 0.03 | 87 | 1013.5 |
| 20260510004536 | 76 | 0 | 2.0 | 6.0 | 0.00 | 0.03 | 0.03 | 87 | 1013.4 |
| 20260510004023 | 77 | 73 | 0.0 | 6.0 | 0.00 | 0.03 | 0.03 | 87 | 1013.1 |
| 20260510003522 | 77 | 49 | 2.0 | 9.0 | 0.00 | 0.03 | 0.03 | 86 | 1013.0 |
| 20260510003047 | 77 | 82 | 2.0 | 9.0 | 0.00 | 0.03 | 0.03 | 86 | 1013.0 |
| 20260510002522 | 77 | 5 | 2.0 | 8.0 | 0.00 | 0.03 | 0.03 | 85 | 1012.8 |
| 20260510002021 | 77 | 62 | 3.0 | 9.0 | 0.00 | 0.03 | 0.03 | 84 | 1012.8 |
| 20260510001543 | 78 | 109 | 3.0 | 9.0 | 0.00 | 0.03 | 0.03 | 84 | 1012.7 |
| 20260510001026 | 78 | 50 | 2.0 | 9.0 | 0.00 | 0.03 | 0.03 | 84 | 1012.6 |
| 20260510000522 | 78 | 281 | 2.0 | 8.0 | 0.00 | 0.03 | 0.03 | 84 | 1012.4 |
| 20260510000041 | 78 | 156 | 2.0 | 8.0 | 0.00 | 0.03 | 0.03 | 85 | 1012.3 |
| 20260509235521 | 78 | 0 | 0.0 | 4.0 | 0.00 | 0.03 | 0.03 | 85 | 1012.3 |
| 20260509235021 | 78 | 26 | 1.0 | 4.0 | 0.00 | 0.03 | 0.03 | 85 | 1012.2 |
| 20260509234540 | 77 | 89 | 1.0 | 4.0 | 0.00 | 0.03 | 0.03 | 86 | 1012.1 |
| 20260509234022 | 77 | 0 | 0.0 | 6.0 | 0.00 | 0.03 | 0.03 | 87 | 1012.1 |
| 20260509233521 | 77 | 84 | 1.0 | 6.0 | 0.00 | 0.03 | 0.03 | 87 | 1012.1 |
| 20260509233040 | 77 | 0 | 1.0 | 8.0 | 0.00 | 0.03 | 0.03 | 88 | 1012.2 |
| 20260509232521 | 77 | 75 | 0.0 | 8.0 | 0.00 | 0.03 | 0.03 | 88 | 1012.1 |
| 20260509232021 | 77 | 85 | 0.0 | 6.0 | 0.00 | 0.03 | 0.03 | 88 | 1012.2 |
| 20260509231541 | 77 | 0 | 1.0 | 6.0 | 0.01 | 0.03 | 0.03 | 88 | 1012.1 |
| 20260509231021 | 77 | 88 | 0.0 | 7.0 | 0.03 | 0.03 | 0.03 | 88 | 1012.1 |
| 20260509230523 | 77 | 85 | 2.0 | 12.0 | 0.03 | 0.03 | 0.03 | 88 | 1012.1 |
| 20260509230041 | 78 | 42 | 4.0 | 13.0 | 0.03 | 0.03 | 0.03 | 87 | 1012.1 |
| 20260509225522 | 78 | 41 | 9.0 | 13.0 | 0.03 | 0.03 | 0.03 | 85 | 1012.1 |
| 20260509225025 | 80 | 90 | 8.0 | 11.0 | 0.03 | 0.03 | 0.03 | 85 | 1012.1 |
| 20260509224550 | 80 | 121 | 8.0 | 15.0 | 0.03 | 0.03 | 0.03 | 83 | 1012.2 |
| 20260509224021 | 80 | 140 | 9.0 | 18.0 | 0.03 | 0.03 | 0.03 | 82 | 1012.0 |
| 20260509223522 | 80 | 142 | 12.0 | 18.0 | 0.03 | 0.03 | 0.03 | 82 | 1011.7 |
| 20260509223040 | 82 | 136 | 14.0 | 17.0 | 0.03 | 0.03 | 0.03 | 80 | 1011.5 |
| 20260509222524 | 84 | 107 | 12.0 | 15.0 | 0.03 | 0.03 | 0.03 | 76 | 1011.4 |
| 20260509222023 | 86 | 92 | 4.0 | 11.0 | 0.03 | 0.03 | 0.03 | 73 | 1011.3 |
| 20260509221543 | 87 | 109 | 1.0 | 11.0 | 0.02 | 0.02 | 0.02 | 67 | 1011.1 |
| 20260509221023 | 88 | 16 | 3.0 | 13.0 | 0.00 | 0.00 | 0.00 | 63 | 1010.9 |
| 20260509220523 | 89 | 302 | 5.0 | 18.0 | 0.00 | 0.00 | 0.00 | 62 | 1010.7 |
| 20260509220035 | 89 | 306 | 5.0 | 18.0 | 0.00 | 0.00 | 0.00 | 60 | 1010.4 |
| 20260509215523 | 90 | 265 | 10.0 | 18.0 | 0.00 | 0.00 | 0.00 | 58 | 1010.4 |
| 20260509215019 | 91 | 274 | 2.0 | 7.0 | 0.00 | 0.00 | 0.00 | 60 | 1010.1 |
| 20260509214542 | 91 | 245 | 4.0 | 10.0 | 0.00 | 0.00 | 0.00 | 55 | 1010.1 |
| 20260509214022 | 91 | 231 | 4.0 | 10.0 | 0.00 | 0.00 | 0.00 | 57 | 1010.2 |
| 20260509213524 | 91 | 242 | 5.0 | 10.0 | 0.00 | 0.00 | 0.00 | 56 | 1010.2 |
| 20260509213042 | 91 | 245 | 3.0 | 10.0 | 0.00 | 0.00 | 0.00 | 59 | 1010.3 |
| 20260509212524 | 91 | 257 | 5.0 | 12.0 | 0.00 | 0.00 | 0.00 | 59 | 1010.3 |
| 20260509212022 | 91 | 246 | 7.0 | 12.0 | 0.00 | 0.00 | 0.00 | 55 | 1010.1 |
| 20260509211545 | 91 | 249 | 8.0 | 11.0 | 0.00 | 0.00 | 0.00 | 56 | 1010.2 |
| 20260509211023 | 91 | 221 | 6.0 | 12.0 | 0.00 | 0.00 | 0.00 | 53 | 1010.2 |
| 20260509210526 | 91 | 239 | 8.0 | 15.0 | 0.00 | 0.00 | 0.00 | 53 | 1010.2 |
| 20260509210044 | 92 | 263 | 9.0 | 15.0 | 0.00 | 0.00 | 0.00 | 54 | 1010.1 |
| 20260509205523 | 92 | 247 | 6.0 | 15.0 | 0.00 | 0.00 | 0.00 | 54 | 1010.1 |
| 20260509205023 | 92 | 243 | 9.0 | 15.0 | 0.00 | 0.00 | 0.00 | 54 | 1010.1 |
| 20260509204535 | 92 | 261 | 8.0 | 15.0 | 0.00 | 0.00 | 0.00 | 54 | 1010.1 |
| 20260509204022 | 91 | 236 | 9.0 | 17.0 | 0.00 | 0.00 | 0.00 | 54 | 1010.1 |
| 20260509203522 | 91 | 251 | 12.0 | 17.0 | 0.00 | 0.00 | 0.00 | 51 | 1010.1 |
| 20260509203043 | 91 | 234 | 10.0 | 15.0 | 0.00 | 0.00 | 0.00 | 53 | 1010.0 |
| 20260509202523 | 91 | 232 | 11.0 | 15.0 | 0.00 | 0.00 | 0.00 | 56 | 1010.1 |
| 20260509202024 | 91 | 236 | 8.0 | 14.0 | 0.00 | 0.00 | 0.00 | 53 | 1010.1 |
| 20260509201549 | 91 | 245 | 7.0 | 14.0 | 0.00 | 0.00 | 0.00 | 55 | 1010.2 |